Location: Corralito
(10.2667°N, 66.9500°W)
Time: 10:32:12
(UTC+00:00)

GPS 2-15 Rocket1 - Pass Details

Date: 07 December 2023
Orbit: 617 x 666 km, 19.8° (Epoch: 02 March)

Event Time Altitude Azimuth Distance (km) Brightness Sun altitude
Rises 23:12:49 0° 215° (SW) 2,945 7.5 -16.2°
Reaches altitude 10° 23:16:28 10° 187° (S) 2,022 6.0 -17.0°
Maximum altitude 23:18:39 13° 159° (SSE) 1,818 5.5 -17.5°
Enters shadow 23:20:44 10° 133° (SE) 1,990 5.4 -18.0°
